QPF
0.00 0.00 0.00 0.00 0.00 0.00 0.00 0.00 0.00 0.00 0.00 0.00 0.00 0.00 0.00 0.00 0.00 0.00 0.00 0.00 0.00 0.00 0.00 0.00 0.00 0.00 0.00 0.00 0.00 0.00 0.00 0.00
0.00 0.00 0.00 0.00 0.00 0.00 0.00 0.00 0.00 0.00 0.00 0.00 0.00 0.00 0.00 0.00 0.00 0.00 0.00 0.00 0.00 0.00 0.00 0.00 0.00 0.00 0.00 0.00 0.00 0.00 0.00 0.00
0.00 0.00 0.00 0.00 0.00 0.00 0.00 0.00 0.00 0.00 0.00 0.00 0.00 0.00 0.00 0.00 0.00 0.00 0.00 0.00 0.00 0.00 0.00 0.00 0.00 0.00 0.00 0.00 0.00 0.00 0.00 0.00
0.00 0.00 0.00 0.00 0.00 0.00 0.00 0.00 0.00 0.00 0.00 0.00 0.00 0.00 0.00 0.00 0.00 0.00 0.00 0.00 0.00 0.00 0.00 0.00 0.00 0.00 0.00 0.00 0.00 0.00 0.00 0.00
0.00 0.00 0.00 0.00 0.00 0.00 0.00 0.00 0.00 0.00 0.00 0.00 0.00 0.01 0.01 0.00 0.01 0.01 0.01 0.00 0.00 0.00 0.00 0.00 0.00 0.00 0.00 0.00 0.00 0.00 0.00 0.00
0.00 0.00 0.00 0.00 0.00 0.00 0.00 0.00 0.00 0.00 0.00 0.00 0.00 0.01 0.02 0.02 0.03 0.05 0.06 0.06 0.04 0.03 0.02 0.01 0.01 0.00 0.00 0.00 0.00 0.00 0.00 0.00
0.00 0.00 0.00 0.00 0.00 0.00 0.00 0.00 0.00 0.00 0.00 0.00 0.00 0.01 0.01 0.03 0.06 0.09 0.11 0.17 0.28 0.30 0.27 0.19 0.13 0.07 0.02 0.00 0.00 0.00 0.00 0.00
0.00 0.00 0.00 0.00 0.00 0.00 0.00 0.00 0.00 0.00 0.00 0.00 0.00 0.00 0.00 0.00 0.01 0.01 0.02 0.03 0.05 0.06 0.08 0.09 0.08 0.05 0.03 0.01 0.01 0.01 0.00 0.00
0.00 0.00 0.00 0.00 0.00 0.00 0.00 0.00 0.00 0.00 0.00 0.00 0.00 0.00 0.00 0.00 0.00 0.00 0.00 0.00 0.00 0.01 0.03 0.05 0.06 0.05 0.04 0.03 0.02 0.01 0.01 0.00
0.00 0.00 0.00 0.00 0.00 0.00 0.00 0.00 0.00 0.00 0.00 0.00 0.00 0.00 0.00 0.00 0.00 0.01 0.02 0.03 0.05 0.07 0.09 0.08 0.09 0.09 0.06 0.06 0.05 0.02 0.00 0.00
0.00 0.00 0.00 0.00 0.00 0.00 0.00 0.00 0.01 0.01 0.02 0.02 0.01 0.00 0.00 0.00 0.01 0.10 0.16 0.18 0.19 0.19 0.19 0.16 0.13 0.12 0.09 0.04 0.02 0.01 0.01 0.00
0.00 0.00 0.00 0.00 0.00 0.00 0.00 0.01 0.03 0.04 0.09 0.14 0.11 0.13 0.14 0.07 0.08 0.15 0.17 0.20 0.17 0.12 0.09 0.07 0.05 0.04 0.03 0.02 0.01 0.00 0.00 0.00
0.00 0.00 0.00 0.00 0.00 0.00 0.00 0.00 0.01 0.01 0.07 0.15 0.24 0.37 0.35 0.23 0.10 0.11 0.16 0.20 0.17 0.09 0.03 0.01 0.00 0.00 0.00 0.00 0.00 0.00 0.00 0.00
0.00 0.00 0.00 0.00 0.00 0.00 0.00 0.00 0.00 0.01 0.02 0.05 0.04 0.06 0.05 0.05 0.06 0.04 0.01 0.05 0.11 0.09 0.06 0.03 0.02 0.00 0.00 0.00 0.00 0.00 0.00 0.00
0.00 0.00 0.00 0.00 0.00 0.00 0.00 0.00 0.00 0.00 0.00 0.00 0.00 0.00 0.00 0.00 0.00 0.01 0.00 0.00 0.00 0.00 0.00 0.00 0.01 0.01 0.00 0.01 0.01 0.00 0.00 0.00
0.00 0.00 0.00 0.00 0.00 0.00 0.00 0.00 0.00 0.00 0.00 0.00 0.00 0.00 0.01 0.00 0.00 0.00 0.00 0.00 0.00 0.00 0.00 0.00 0.00 0.00 0.02 0.02 0.03 0.04 0.02 0.00
0.00 0.00 0.00 0.00 0.00 0.00 0.00 0.00 0.00 0.00 0.00 0.00 0.00 0.00 0.00 0.00 0.00 0.00 0.00 0.00 0.00 0.00 0.00 0.00 0.00 0.00 0.00 0.01 0.01 0.04 0.05 0.01
0.00 0.00 0.00 0.00 0.00 0.00 0.00 0.00 0.00 0.00 0.00 0.00 0.00 0.00 0.00 0.00 0.00 0.00 0.00 0.00 0.00 0.00 0.01 0.03 0.01 0.00 0.00 0.00 0.00 0.00 0.02 0.05
0.00 0.00 0.00 0.00 0.00 0.00 0.00 0.00 0.00 0.00 0.00 0.00 0.00 0.00 0.00 0.00 0.00 0.00 0.00 0.00 0.00 0.00 0.01 0.03 0.03 0.01 0.01 0.00 0.00 0.00 0.00 0.01
MSLP
1003.99 1004.41 1004.48 1004.37 1004.72 1005.26 1006.00 1007.62 1009.04 1009.74 1010.42 1010.90 1011.12 1011.17 1011.42 1011.64 1012.07 1012.20 1012.69 1013.56 1013.92 1014.04 1014.02 1013.99 1014.70 1014.95 1015.09 1015.42 1015.60 1016.01 1016.38 1017.00
1004.69 1005.10 1005.16 1005.22 1005.55 1005.81 1006.54 1008.27 1009.14 1009.73 1010.41 1011.07 1011.42 1011.45 1011.65 1011.45 1011.57 1011.57 1011.93 1012.79 1013.37 1013.59 1013.50 1013.77 1014.57 1014.29 1014.50 1014.93 1015.17 1015.52 1015.96 1016.98
1004.87 1005.18 1005.46 1005.73 1005.98 1006.29 1006.84 1008.19 1008.91 1009.61 1010.30 1010.78 1011.19 1011.64 1011.44 1011.31 1011.00 1011.16 1011.61 1012.39 1012.85 1013.17 1013.25 1013.42 1014.34 1014.39 1014.64 1014.82 1015.15 1015.29 1015.93 1016.73
1005.56 1005.88 1006.20 1006.33 1006.76 1007.03 1007.47 1008.25 1009.06 1009.91 1010.44 1011.01 1011.58 1011.96 1012.06 1011.84 1011.54 1011.58 1011.95 1012.55 1013.10 1013.38 1013.52 1013.53 1013.86 1013.96 1014.24 1014.80 1015.18 1014.97 1015.33 1016.51
1006.50 1006.65 1007.08 1007.52 1008.07 1008.38 1008.66 1009.23 1009.75 1010.42 1010.85 1011.26 1011.73 1012.17 1012.53 1012.76 1012.84 1012.52 1013.13 1013.65 1013.83 1013.82 1013.73 1014.16 1014.57 1014.86 1014.28 1014.60 1014.93 1015.04 1015.14 1016.10
1007.13 1007.60 1007.81 1008.07 1008.45 1008.90 1009.18 1009.54 1009.97 1010.69 1011.10 1011.38 1011.81 1012.20 1012.68 1013.37 1013.50 1013.80 1014.22 1014.44 1014.56 1014.79 1014.32 1014.59 1014.58 1015.31 1015.35 1015.17 1015.33 1015.64 1015.50 1015.89
1007.75 1008.34 1008.45 1008.50 1008.86 1009.12 1009.28 1009.59 1010.12 1010.78 1011.27 1011.39 1011.54 1011.62 1012.01 1012.66 1013.25 1013.59 1013.73 1013.87 1014.35 1014.28 1014.83 1015.05 1015.16 1015.47 1016.47 1015.95 1016.13 1016.09 1016.36 1016.05
1007.36 1007.71 1007.95 1008.36 1008.65 1008.84 1008.99 1009.14 1009.46 1010.20 1010.87 1011.23 1011.46 1011.76 1012.12 1012.24 1012.61 1013.17 1013.79 1014.06 1014.25 1014.11 1014.75 1015.00 1014.93 1015.65 1016.55 1016.54 1016.62 1017.35 1016.87 1016.54
1007.00 1007.15 1007.41 1007.76 1008.07 1008.48 1008.80 1008.96 1008.82 1009.03 1009.57 1010.02 1010.64 1011.07 1011.45 1011.93 1012.62 1013.00 1013.44 1013.66 1014.18 1014.38 1014.50 1014.80 1015.04 1015.60 1016.14 1016.62 1017.14 1017.92 1017.73 1016.85
1006.72 1006.61 1006.66 1006.88 1006.92 1007.12 1007.85 1008.18 1008.09 1008.31 1008.93 1009.42 1009.67 1010.35 1010.66 1011.08 1011.32 1012.24 1012.69 1013.23 1013.86 1014.39 1014.66 1015.20 1015.24 1015.68 1016.18 1016.50 1017.52 1017.95 1017.85 1017.75
1006.33 1006.16 1006.36 1006.48 1006.55 1006.47 1006.74 1007.44 1007.68 1007.74 1008.24 1008.16 1008.50 1009.03 1009.97 1010.35 1011.19 1011.81 1012.39 1013.03 1013.71 1014.22 1014.52 1015.06 1015.24 1015.69 1016.24 1016.60 1017.48 1017.76 1018.12 1017.89
1006.16 1006.10 1006.28 1006.21 1006.26 1006.20 1006.20 1006.33 1006.55 1006.87 1007.27 1007.82 1008.36 1009.15 1008.85 1009.77 1010.79 1011.59 1012.32 1012.50 1013.00 1013.64 1014.30 1014.85 1015.26 1015.72 1016.00 1016.48 1017.04 1017.68 1017.84 1017.57
1006.20 1006.06 1006.14 1006.03 1005.97 1005.97 1006.08 1005.60 1005.62 1005.99 1006.64 1007.08 1007.73 1008.79 1009.46 1010.11 1010.85 1010.82 1011.73 1012.33 1012.83 1013.02 1013.65 1014.48 1015.10 1015.49 1015.60 1016.11 1016.55 1017.13 1017.43 1017.16
1005.79 1005.82 1005.70 1005.63 1006.03 1006.09 1006.20 1005.90 1005.75 1005.77 1005.75 1006.54 1007.10 1007.68 1007.87 1008.64 1009.64 1010.14 1011.03 1011.75 1012.53 1013.15 1013.51 1014.24 1014.48 1015.04 1015.42 1015.89 1016.41 1016.62 1016.64 1016.57
1005.46 1005.39 1005.30 1005.64 1006.13 1006.08 1006.13 1006.03 1006.09 1006.17 1006.12 1006.21 1006.49 1007.10 1007.55 1007.45 1008.96 1009.32 1008.96 1010.19 1011.89 1012.91 1013.20 1013.84 1014.03 1014.74 1015.30 1015.70 1016.07 1016.16 1016.34 1016.63
1005.37 1005.11 1005.02 1005.35 1005.68 1005.95 1006.01 1005.87 1005.94 1005.88 1005.92 1005.87 1005.96 1006.32 1006.92 1007.05 1007.94 1008.49 1009.27 1009.84 1010.58 1011.78 1012.64 1013.04 1013.77 1014.29 1014.72 1015.54 1016.19 1016.13 1016.56 1016.75
1005.38 1005.09 1004.93 1005.41 1005.53 1005.70 1005.57 1005.61 1005.29 1005.17 1005.40 1005.36 1005.38 1005.59 1005.99 1006.78 1007.36 1007.84 1008.50 1009.45 1010.13 1011.10 1012.06 1012.60 1013.27 1013.61 1014.32 1015.14 1015.79 1016.33 1016.46 1016.73
1005.90 1005.60 1005.38 1005.44 1005.44 1005.54 1005.43 1005.24 1005.07 1004.94 1004.83 1004.72 1004.79 1004.90 1005.28 1006.20 1006.85 1007.49 1008.02 1008.66 1009.39 1010.40 1011.54 1012.54 1013.13 1013.57 1014.40 1014.98 1015.63 1016.38 1017.04 1017.34
1006.78 1006.20 1005.89 1005.56 1005.25 1005.35 1005.31 1005.18 1004.89 1004.49 1004.36 1004.37 1004.68 1005.04 1005.36 1005.89 1006.63 1007.19 1007.71 1008.35 1009.10 1009.94 1011.20 1012.13 1012.81 1013.25 1014.14 1015.10 1015.80 1016.41 1017.12 1017.74
Thickness
5726 5723 5723 5725 5721 5714 5706 5692 5678 5670 5664 5659 5655 5652 5646 5641 5636 5634 5629 5622 5619 5618 5616 5615 5608 5604 5601 5596 5593 5590 5586 5581
5714 5709 5708 5706 5701 5698 5690 5674 5666 5660 5653 5645 5640 5639 5635 5634 5632 5629 5624 5616 5611 5609 5609 5606 5598 5599 5596 5591 5587 5581 5577 5570
5703 5700 5696 5691 5687 5683 5678 5664 5657 5651 5643 5638 5633 5627 5626 5625 5627 5623 5617 5609 5604 5600 5599 5597 5588 5585 5582 5579 5574 5571 5564 5560
5685 5682 5678 5676 5669 5666 5660 5653 5645 5636 5631 5624 5617 5612 5610 5611 5612 5610 5604 5596 5589 5584 5581 5580 5578 5575 5571 5565 5560 5561 5556 5550
5670 5666 5660 5654 5647 5644 5640 5632 5626 5619 5614 5609 5604 5599 5595 5588 5586 5586 5580 5572 5568 5566 5564 5557 5555 5550 5555 5553 5549 5546 5544 5537
5650 5644 5641 5639 5635 5629 5625 5621 5615 5607 5601 5597 5590 5584 5576 5568 5563 5557 5552 5548 5544 5538 5542 5537 5536 5529 5521 5527 5528 5524 5527 5524
5633 5625 5623 5622 5619 5615 5614 5610 5604 5597 5590 5586 5581 5576 5568 5558 5547 5541 5538 5536 5530 5530 5521 5517 5517 5510 5503 5506 5507 5508 5504 5507
5626 5619 5614 5610 5607 5605 5603 5601 5596 5587 5578 5570 5564 5556 5548 5541 5532 5523 5514 5510 5508 5509 5504 5501 5501 5496 5489 5487 5488 5481 5487 5488
5612 5610 5606 5602 5597 5590 5586 5584 5582 5577 5568 5559 5550 5541 5531 5519 5507 5499 5495 5491 5486 5483 5483 5483 5478 5475 5471 5468 5465 5459 5458 5471
5601 5601 5599 5595 5592 5587 5582 5577 5574 5567 5555 5544 5536 5523 5513 5504 5498 5489 5484 5477 5472 5465 5464 5458 5460 5460 5455 5453 5444 5445 5450 5456
5592 5592 5587 5586 5583 5581 5576 5566 5559 5553 5541 5535 5523 5512 5500 5494 5485 5475 5471 5467 5460 5455 5451 5445 5446 5444 5442 5442 5441 5442 5442 5445
5580 5579 5577 5575 5571 5569 5563 5559 5551 5541 5532 5520 5509 5498 5499 5482 5475 5467 5461 5461 5456 5450 5445 5440 5438 5437 5440 5440 5439 5435 5436 5442
5568 5566 5563 5561 5559 5554 5546 5546 5540 5532 5519 5510 5499 5486 5480 5471 5464 5465 5459 5452 5450 5450 5446 5440 5438 5437 5440 5440 5438 5434 5432 5438
5559 5554 5552 5549 5541 5536 5528 5524 5517 5511 5508 5500 5492 5484 5480 5471 5465 5463 5457 5452 5445 5440 5439 5437 5436 5435 5435 5433 5431 5431 5434 5439
5549 5543 5538 5532 5524 5516 5510 5503 5497 5493 5492 5490 5486 5479 5474 5474 5460 5462 5466 5457 5444 5437 5437 5434 5436 5432 5428 5427 5427 5430 5432 5432
5536 5532 5525 5515 5507 5499 5491 5489 5486 5485 5483 5483 5482 5478 5472 5470 5463 5460 5455 5452 5447 5439 5435 5434 5431 5428 5428 5423 5420 5423 5422 5424
5522 5518 5510 5497 5490 5486 5485 5483 5484 5483 5480 5480 5481 5477 5473 5464 5461 5459 5455 5448 5444 5438 5432 5431 5426 5427 5423 5418 5414 5413 5415 5416
5503 5496 5490 5485 5480 5478 5479 5479 5479 5478 5478 5479 5478 5477 5474 5465 5458 5453 5450 5448 5444 5438 5430 5424 5421 5419 5415 5413 5408 5404 5401 5400
5479 5477 5475 5475 5474 5472 5473 5473 5474 5475 5475 5475 5472 5470 5467 5462 5455 5449 5445 5440 5437 5432 5424 5419 5416 5416 5409 5405 5401 5398 5394 5390